Theta_e
289 290 290 291 291 291 290 291 291 291 293 293 291 293 295 296 295 293 296 295 296 299 301 305 307 302 301 302 304 305 306 307 308 309 311 318 321 322 324 327 330 332 333 335 336 337 338 339 339 340 340 341 342 342 343 344 344 344 346 345 345 345 345 345 346 347 348 348 349 349 349 349 349 349 349 350 350 351 351 351 351 351 352 352 351 351 352
288 289 290 291 290 290 291 291 292 293 297 299 298 296 297 296 295 299 297 296 297 300 308 310 316 317 316 312 310 311 309 308 308 308 309 316 321 322 324 327 330 332 334 335 336 337 338 338 339 339 340 341 341 342 342 343 344 345 346 345 345 345 344 345 346 347 348 349 348 349 348 348 349 349 349 350 350 350 351 351 351 352 352 352 352 351 351
285 288 291 291 291 290 290 294 298 299 302 305 303 301 300 301 296 296 297 296 298 301 311 317 325 325 325 326 327 327 326 314 312 311 312 317 322 323 326 328 330 332 334 335 336 337 338 338 339 340 341 341 342 342 343 343 344 345 346 345 345 345 345 346 347 347 348 348 349 348 349 349 349 349 349 350 350 350 350 351 351 352 352 350 350 351 351
282 288 289 289 290 292 291 295 297 298 300 304 306 303 307 304 299 299 297 295 295 309 320 322 325 326 325 325 326 328 329 328 317 317 317 320 323 325 327 329 330 332 334 335 336 337 337 338 339 340 341 342 342 342 344 344 345 346 346 345 345 345 346 347 347 347 348 348 348 349 349 349 349 350 350 350 350 350 350 350 351 352 351 350 350 350 350
281 286 289 288 290 295 293 293 295 297 300 305 307 307 307 306 307 298 296 297 313 315 320 323 324 326 326 327 328 328 330 330 325 317 320 322 324 326 328 329 331 332 334 335 336 337 338 339 339 341 342 342 342 344 344 345 347 346 346 346 346 346 347 347 348 348 348 348 348 348 349 350 350 350 350 350 350 350 349 351 351 351 351 351 350 351 350
280 286 287 288 292 286 288 298 300 300 298 299 302 302 304 305 307 307 311 312 317 319 319 323 325 326 326 327 329 331 330 330 330 317 318 322 325 327 329 331 332 334 336 336 338 338 339 340 341 342 344 343 344 345 346 347 347 347 347 347 347 347 347 348 348 349 349 349 348 349 349 350 350 350 350 349 350 351 351 351 351 350 350 350 351 351 350
279 284 287 290 285 288 298 300 301 301 302 302 298 306 305 305 306 307 308 310 312 317 322 322 322 327 330 332 331 331 332 332 333 331 321 321 325 325 327 330 332 334 336 337 338 338 339 340 341 342 343 344 345 346 347 346 347 347 348 348 347 348 348 348 349 349 349 349 349 349 350 350 350 350 350 350 350 351 351 350 350 350 350 350 350 350 350
284 283 281 283 287 298 299 304 300 302 302 301 299 305 303 304 304 306 306 309 311 315 322 324 325 324 327 332 332 331 331 333 334 336 334 326 324 325 328 330 332 333 335 336 337 338 341 342 341 342 342 345 345 345 347 347 347 348 348 348 348 348 348 349 349 350 350 350 350 350 350 350 350 349 350 350 350 351 351 351 351 351 351 351 350 350 351
278 282 280 286 296 297 295 295 296 297 294 296 295 295 302 304 305 306 306 308 309 312 320 323 325 326 328 327 328 331 331 332 335 338 339 339 331 327 329 330 331 334 336 337 339 342 341 341 341 341 343 345 345 345 346 346 348 348 348 348 348 349 349 349 350 350 350 350 350 350 351 350 350 350 350 350 351 352 351 351 350 350 350 350 351 351 350
288 278 280 282 288 285 290 294 298 300 301 301 302 298 302 305 306 307 306 307 306 308 315 319 323 326 323 319 322 328 331 333 334 338 340 342 342 338 333 333 333 335 336 339 342 340 340 340 341 342 343 345 345 345 345 346 347 347 348 348 349 350 350 351 351 351 351 351 351 351 351 350 350 351 351 352 351 352 351 350 350 350 351 351 351 352 350
283 280 279 279 283 286 290 293 296 300 303 304 305 300 296 304 306 306 306 305 305 306 309 313 319 321 316 316 321 326 330 332 334 336 339 340 341 342 342 338 337 338 338 340 341 341 340 339 340 342 344 344 344 345 347 346 347 347 347 348 350 350 351 352 353 353 353 352 352 351 351 351 351 351 351 352 353 353 352 352 352 352 352 351 351 352 351
284 282 280 278 285 283 291 295 299 301 304 305 301 293 292 303 306 307 306 304 304 305 308 311 312 312 312 314 319 327 330 333 334 335 336 338 340 342 344 345 346 346 348 346 343 342 341 342 342 343 343 344 345 345 346 346 346 346 348 349 351 352 353 353 354 354 354 354 353 353 352 352 353 353 353 353 353 353 353 353 353 353 352 352 351 351 352
286 286 284 289 288 295 296 299 301 303 305 305 293 287 295 306 306 307 307 305 305 305 306 307 306 310 316 319 323 328 327 329 331 334 336 338 340 341 342 343 348 345 346 347 346 347 348 350 347 343 343 343 345 346 346 345 346 347 349 351 352 353 354 354 354 355 355 355 354 355 355 354 354 354 354 354 353 353 353 353 353 352 352 352 351 351 352
285 287 284 285 289 294 299 300 303 303 302 292 290 300 308 308 306 308 308 305 306 305 306 307 307 310 315 319 321 320 323 326 327 329 333 335 337 340 342 345 344 342 343 344 346 348 350 353 352 347 345 346 348 348 346 345 348 354 354 352 351 352 353 354 355 355 356 356 356 356 356 356 355 354 355 355 355 354 354 353 352 352 352 351 351 351 352
288 286 286 286 281 291 301 299 300 299 293 292 298 303 303 304 303 305 307 306 306 306 305 309 310 311 311 312 314 315 319 323 325 327 330 331 333 335 337 338 340 340 339 340 341 343 346 350 352 352 351 350 350 351 349 351 354 357 359 358 355 352 352 352 354 356 357 357 356 357 356 357 356 354 355 355 355 355 354 353 352 352 352 352 351 351 351
284 284 282 282 290 295 301 299 290 297 298 301 301 300 298 301 302 302 305 306 308 308 305 308 310 311 310 309 310 312 315 319 324 326 328 330 332 335 337 338 339 340 337 338 339 340 342 344 347 350 350 348 349 349 347 349 352 356 357 356 357 355 352 351 352 354 356 358 358 358 358 357 357 356 355 356 355 355 354 353 352 351 351 352 351 350 350
287 287 289 294 297 299 300 302 300 301 302 302 301 301 300 299 300 304 302 302 306 309 306 307 310 309 309 308 309 310 312 316 321 324 325 327 330 332 334 336 339 337 336 337 338 339 340 342 343 345 349 348 348 346 345 350 351 353 353 355 355 353 352 352 351 352 354 356 357 358 359 358 356 356 356 356 354 355 354 353 352 351 351 351 350 350 349
293 298 299 299 296 296 298 303 305 301 300 300 301 301 299 300 301 303 302 303 304 308 307 307 309 309 310 310 308 309 311 314 318 323 324 325 328 331 334 336 337 336 337 337 338 338 339 341 343 345 346 348 347 345 347 350 349 351 353 355 354 354 352 349 350 351 351 352 354 357 358 359 358 357 357 356 355 354 354 353 352 351 351 350 350 350 349
289 287 298 294 293 295 297 300 305 304 303 301 301 300 301 302 302 303 304 304 304 308 308 308 308 307 308 309 309 308 310 312 315 319 323 324 326 328 330 335 337 334 336 336 336 337 337 338 340 342 342 344 345 347 348 347 349 351 356 356 357 352 350 350 349 350 350 350 351 353 355 357 358 358 358 356 355 353 354 353 352 351 352 350 349 349 349
289 288 292 293 295 297 299 303 301 300 301 301 301 301 302 303 304 303 304 305 305 307 307 308 309 307 307 308 308 307 309 311 314 317 321 323 324 327 331 333 338 334 334 334 335 335 335 336 338 340 340 341 342 343 344 346 348 355 359 358 352 349 349 350 349 349 350 355 354 352 354 355 356 356 356 356 355 354 353 353 352 352 352 351 350 350 350
290 293 294 293 295 301 301 302 302 301 300 300 300 300 300 301 301 302 303 305 305 306 307 309 309 306 306 306 308 308 307 310 312 315 320 323 323 325 328 331 336 335 334 334 334 334 334 335 337 338 338 339 341 342 344 345 347 353 355 355 349 346 347 350 352 353 352 358 353 343 331 322 315 314 318 330 352 354 336 339 355 355 353 354 353 354 354
285 286 289 292 286 287 293 295 297 298 300 300 299 300 300 300 300 302 302 303 305 306 308 310 309 307 306 306 309 309 309 310 310 313 320 322 323 324 327 331 333 335 337 335 333 333 333 335 337 337 338 339 340 342 345 345 347 349 349 347 346 346 347 347 353 354 353 350 341 336 334 328 323 318 311 301 304 331 334 322 311 310 331 354 357 357 353
285 291 293 294 294 293 294 296 298 300 300 300 298 298 299 300 301 302 302 302 303 305 308 311 309 307 307 307 308 310 310 310 311 311 321 321 322 323 326 328 330 333 335 337 335 334 333 335 336 337 337 337 339 341 343 345 345 345 345 345 344 344 346 348 351 353 349 344 341 338 336 334 335 332 328 319 300 298 305 306 300 297 300 312 326 331 344
294 295 295 296 294 292 294 297 298 298 300 300 299 300 301 301 301 303 303 303 302 303 306 310 309 307 308 308 308 309 310 310 310 310 318 322 323 325 326 327 329 330 333 333 333 333 332 334 334 335 336 336 336 338 341 343 345 345 344 344 343 342 344 349 352 350 347 343 339 337 336 337 336 334 334 331 323 305 297 300 300 297 297 297 304 313 315
292 297 297 297 296 296 298 298 299 299 301 302 300 300 301 302 303 304 303 303 304 304 306 308 307 308 308 308 309 308 310 310 311 314 319 322 324 324 324 327 328 329 331 331 331 332 332 333 334 335 335 335 335 336 339 341 343 343 344 344 342 342 344 348 352 350 345 342 340 339 338 337 337 337 336 334 328 322 315 302 299 298 297 297 298 299 300
299 298 299 299 298 298 299 299 299 300 300 301 301 303 304 307 306 306 305 306 305 307 308 308 308 308 310 309 308 309 310 311 314 317 311 315 319 320 322 325 328 330 332 331 332 332 333 334 333 333 334 334 334 335 337 339 340 340 342 344 344 342 344 347 349 349 345 343 341 339 339 339 338 337 336 334 330 329 328 327 324 313 305 299 297 298 297
298 299 298 296 295 296 297 295 295 299 300 302 302 302 303 303 306 306 306 307 308 309 309 309 309 309 310 310 311 312 311 312 312 310 310 312 316 319 322 326 328 330 332 332 331 337 339 336 333 333 332 333 333 334 336 337 338 338 339 339 341 347 348 346 346 346 346 344 342 340 339 338 337 335 333 334 333 333 332 331 327 324 321 317 304 300 305
298 298 298 293 292 294 295 298 299 300 301 302 303 303 304 304 304 303 303 303 303 305 306 308 308 308 307 308 309 308 308 308 308 309 310 310 315 320 323 326 328 330 331 331 328 331 333 331 332 332 332 332 333 334 335 336 336 336 336 337 337 338 339 342 341 342 340 339 338 337 335 334 335 334 335 334 331 330 327 328 325 323 321 319 313 304 298
297 297 298 298 298 298 298 299 299 299 300 301 302 304 305 304 302 302 302 302 303 304 304 305 308 308 308 307 308 309 309 308 308 307 308 312 317 320 323 326 328 330 328 328 327 327 328 329 330 331 332 332 332 333 333 333 333 333 334 334 335 336 338 339 339 338 338 337 336 335 332 332 333 334 334 333 332 331 330 328 326 325 323 323 324 323 318
297 298 298 297 298 298 297 296 296 297 298 300 300 301 303 304 302 302 302 302 302 302 303 304 304 306 308 308 309 310 311 309 308 308 311 313 316 320 324 325 326 329 327 326 326 325 326 327 328 330 331 333 333 332 332 331 330 330 330 330 331 334 337 338 339 338 336 334 333 330 333 334 334 333 333 332 332 332 330 328 328 327 327 327 325 325 323
297 297 297 297 297 297 296 295 296 297 298 299 299 300 301 303 302 302 302 302 302 302 303 303 304 305 307 309 310 312 312 311 310 311 312 313 317 321 323 323 323 325 326 325 324 325 324 325 325 328 329 332 332 332 331 330 330 329 329 329 329 323 323 327 331 337 335 334 333 332 332 332 332 331 330 328 328 326 324 323 321 321 321 321 321 321 321
295 295 296 295 295 295 295 295 295 296 297 298 298 298 299 301 301 301 302 302 302 302 302 302 303 304 306 309 311 312 312 311 312 312 311 314 317 321 321 321 321 326 323 323 325 325 325 324 327 327 329 331 331 331 330 330 329 329 328 330 328 328 326 325 330 331 333 334 333 333 332 331 330 330 330 328 326 324 323 320 319 318 317 315 314 314 317
293 292 292 293 294 294 294 294 294 295 296 296 297 299 301 302 303 305 304 304 303 303 302 302 303 304 306 308 310 311 311 312 312 312 313 314 316 321 320 322 320 321 322 322 323 323 323 323 324 325 331 330 330 329 329 328 327 326 326 326 327 328 328 324 325 329 330 330 330 330 331 330 329 328 326 326 324 323 321 319 318 318 316 315 313 313 312
294 293 294 295 295 293 293 293 295 295 296 297 298 299 301 304 305 306 305 305 304 303 302 303 304 305 305 306 308 309 310 310 311 314 317 318 320 320 320 322 321 320 320 320 321 321 322 323 325 329 330 329 329 328 327 326 325 325 325 325 325 324 325 324 325 327 326 326 326 326 327 327 325 325 324 323 322 320 320 318 318 316 315 314 313 313 307
298 298 298 297 297 297 297 296 295 295 295 295 297 299 302 306 307 306 307 305 303 303 304 304 304 305 305 306 306 308 310 310 312 314 316 318 318 318 318 319 319 319 319 318 318 318 320 323 326 330 329 328 327 326 325 325 324 324 324 324 324 324 324 324 323 322 322 322 322 322 321 321 321 323 322 320 319 319 317 316 316 315 313 312 312 313 311
298 297 297 297 297 298 297 297 297 296 296 296 297 298 300 303 307 305 305 306 306 305 304 304 305 305 305 305 306 307 310 313 313 314 315 315 315 315 317 317 317 317 317 317 318 317 319 322 334 331 328 326 325 325 324 323 323 323 323 323 322 322 321 321 321 321 321 320 319 319 318 319 319 317 317 316 315 314 314 313 312 312 311 311 311 310 310
298 298 298 297 297 298 297 297 297 296 296 297 297 298 299 301 304 308 307 305 306 306 306 305 305 304 305 306 308 311 311 311 312 312 311 312 313 315 315 315 316 316 317 316 316 317 319 323 333 331 327 326 325 325 326 324 322 321 321 320 320 319 319 318 318 317 317 317 317 317 316 315 313 314 314 313 313 312 312 311 311 310 309 309 309 309 309
297 298 298 297 297 297 297 297 298 297 297 297 297 299 300 300 302 305 307 306 306 306 307 307 306 308 310 312 310 309 309 310 310 311 312 313 313 313 313 314 313 314 313 312 315 317 319 328 331 328 325 325 324 323 323 323 323 319 319 319 318 317 317 315 315 315 314 313 314 313 312 311 311 310 310 310 310 310 309 309 308 308 307 307 307 307 307
296 297 297 297 297 297 297 298 298 298 297 296 296 296 298 300 301 302 303 305 308 310 308 309 311 312 310 309 309 309 309 310 311 311 311 312 313 312 311 312 313 314 315 317 317 317 322 326 326 324 324 323 323 323 323 322 321 318 317 317 317 316 315 314 313 313 313 312 311 310 309 309 309 309 309 309 309 309 309 307 307 306 305 305 305 304 304
296 296 296 297 296 297 297 297 297 297 298 298 296 295 297 298 298 299 300 301 304 308 309 311 310 309 308 307 307 307 309 310 311 311 311 312 312 311 312 312 313 315 317 319 318 319 322 325 323 321 322 322 322 321 321 321 319 317 316 315 315 315 314 314 313 311 310 309 308 309 307 306 306 306 305 305 304 304 304 305 305 304 304 303 303 303 303
296 296 296 296 296 296 296 296 296 297 297 297 297 297 297 297 297 298 298 300 301 304 306 307 306 306 306 306 306 306 308 310 310 310 312 312 310 310 309 308 312 314 318 318 318 319 320 320 319 318 319 319 320 321 319 318 316 315 314 314 313 313 312 311 310 309 308 306 306 304 304 305 304 304 304 303 302 302 302 302 302 302 302 301 301 302 302
297 297 297 296 296 296 296 296 297 297 297 297 297 298 297 297 297 297 298 299 300 301 301 304 308 306 306 306 306 306 306 307 307 308 309 308 308 308 307 308 312 314 316 316 317 316 315 316 318 319 317 317 318 318 317 315 312 312 312 311 311 310 309 308 307 306 306 305 304 304 304 303 303 302 302 302 301 300 300 300 300 299 299 300 299 299 299
298 297 297 296 296 296 296 296 296 296 296 297 297 297 297 297 297 297 297 298 299 299 300 300 302 304 304 303 303 302 303 305 306 307 307 307 309 309 308 308 311 314 315 315 314 313 314 314 315 316 317 317 316 316 314 310 310 309 308 308 308 307 306 306 305 305 304 303 303 302 302 301 301 300 300 299 298 298 298 297 297 297 297 297 297 297 297
298 297 297 297 297 298 297 296 296 296 296 296 297 297 296 296 297 297 297 297 297 298 298 298 299 300 301 301 301 301 301 302 303 306 306 305 306 308 311 311 311 313 314 313 313 313 314 315 315 316 317 316 314 314 311 310 309 308 307 306 306 306 305 305 305 304 303 303 303 302 302 302 300 299 299 298 297 297 297 296 296 295 295 295 295 295 295
297 297 298 298 297 298 296 296 296 296 297 297 297 297 296 296 296 297 297 296 297 297 298 297 298 299 300 300 300 300 301 301 302 302 302 303 303 304 310 312 311 312 312 312 310 311 311 312 313 313 313 312 312 312 308 308 308 308 307 307 305 305 305 304 304 304 304 303 303 303 303 302 301 300 299 299 299 297 296 296 295 295 295 295 295 295 295
296 297 298 300 297 297 297 297 298 298 297 297 296 297 297 296 296 297 297 296 296 296 296 296 297 297 298 299 301 301 301 301 302 303 303 303 303 305 309 311 310 311 311 311 310 309 309 311 310 310 310 310 311 308 307 308 308 306 306 306 306 306 304 304 304 304 303 303 302 301 301 300 300 300 300 300 299 299 299 299 298 297 297 296 296 296 296
294 295 297 297 297 298 299 298 299 297 296 296 295 295 297 297 297 296 297 297 297 297 297 297 297 297 298 298 298 298 299 299 300 302 303 303 306 307 308 309 310 310 310 308 308 308 309 310 309 308 308 308 308 304 304 305 305 305 305 305 305 305 305 304 304 304 303 303 303 303 302 301 300 299 300 299 298 298 298 297 296 297 297 297 297 297 296
295 294 294 298 298 299 298 298 297 295 295 296 296 297 298 298 298 298 298 297 297 297 297 297 297 297 299 299 299 300 300 299 297 298 302 302 303 304 305 305 307 307 308 308 308 308 308 307 307 307 307 307 305 303 303 303 303 303 303 303 303 303 303 303 302 302 302 302 301 300 299 298 298 298 298 297 297 297 297 297 297 297 297 296 296 295 295
295 295 295 296 297 299 298 298 298 298 297 299 299 299 300 299 299 299 299 298 297 297 297 297 297 297 298 301 301 299 302 303 300 299 302 303 303 303 304 305 306 306 306 305 305 306 307 306 306 305 305 305 302 302 302 303 303 303 302 302 302 302 302 301 302 302 302 302 301 300 300 298 298 298 298 298 298 297 298 297 297 297 296 297 297 296 296
297 296 295 295 295 295 296 296 296 297 298 300 299 300 300 300 298 298 299 299 299 299 298 298 298 298 298 298 299 300 300 302 303 302 302 303 303 303 304 304 305 305 305 304 304 304 306 306 306 306 304 302 302 302 302 302 302 302 302 302 302 301 302 301 302 302 302 302 300 299 299 299 299 299 299 298 298 298 298 298 297 298 298 297 297 296 296
295 294 294 296 296 297 295 296 297 300 298 299 299 301 301 300 299 300 300 299 299 299 298 299 299 300 300 300 300 301 301 302 303 304 302 302 303 304 305 304 304 304 304 303 302 302 303 303 303 304 303 303 302 301 301 301 301 301 301 301 301 301 301 301 301 301 300 300 300 299 299 298 298 297 297 297 297 297 297 297 296 296 295 295 295 295 295
295 295 294 293 294 294 295 297 300 302 301 300 299 299 298 299 299 299 300 300 299 298 298 297 297 300 302 301 302 302 302 302 303 302 303 304 302 301 303 304 302 302 302 301 301 301 302 303 305 305 304 301 301 300 302 302 300 300 300 301 300 299 300 299 299 299 299 299 298 298 298 298 298 297 297 297 297 296 296 295 295 295 295 294 294 294 293
Wind_Speed
10 10 11 12 9 10 12 12 14 16 17 11 10 8 8 3 11 14 3 3 5 15 4 6 1 3 6 9 10 10 8 9 9 11 12 15 17 16 14 14 16 17 17 16 18 18 18 18 17 17 16 15 13 13 13 14 15 16 15 15 15 15 14 15 15 14 13 12 12 12 13 12 12 12 12 12 11 11 11 11 10 11 11 11 11 11 11
9 11 13 13 11 7 8 10 12 12 13 14 11 13 11 11 9 4 6 8 13 2 7 8 6 5 5 7 6 6 7 12 12 12 14 15 16 15 16 16 17 17 19 19 18 19 17 18 18 17 15 15 16 17 16 16 16 15 14 15 15 15 15 15 14 13 13 12 12 13 13 13 13 12 12 11 11 11 12 12 11 10 10 11 10 11 11
9 11 8 8 8 6 6 4 6 8 12 9 11 10 7 5 7 9 12 7 10 2 5 5 6 4 3 6 11 10 9 10 13 14 15 15 16 16 16 16 18 17 17 17 16 17 17 18 19 18 17 17 16 16 15 16 16 15 15 14 15 15 16 15 14 13 12 12 12 13 13 12 11 12 12 11 11 12 12 12 12 11 11 11 11 11 12
7 4 3 5 5 8 8 2 10 14 14 9 8 5 5 1 4 5 6 6 6 8 11 6 6 9 13 11 12 13 11 12 10 11 11 13 14 16 16 17 16 15 15 15 17 18 19 19 18 17 15 15 15 16 16 16 16 14 15 14 15 15 15 13 13 13 12 12 12 12 12 13 12 12 11 11 12 12 12 12 12 11 12 13 12 12 11
6 6 3 8 9 3 2 3 6 9 8 8 4 7 11 10 4 1 2 2 5 9 8 7 10 10 12 13 12 13 15 15 11 9 8 11 13 15 16 16 16 16 17 18 20 20 18 18 18 18 17 16 17 17 16 15 13 14 15 15 14 14 13 13 13 13 12 13 13 13 13 13 12 11 12 12 13 12 13 12 11 12 13 13 12 12 12
6 6 8 8 3 9 5 6 4 7 6 9 10 9 10 14 10 2 3 6 9 9 8 7 8 11 10 9 9 9 10 12 14 8 5 6 7 9 13 15 17 16 15 15 17 19 20 20 20 17 17 18 14 12 12 12 14 13 13 13 13 13 13 13 13 13 13 13 14 14 13 13 12 13 13 14 13 12 12 11 11 12 13 13 13 12 12
6 7 7 4 8 5 8 7 9 10 6 7 10 9 16 18 18 18 15 14 15 14 9 6 7 5 5 7 12 15 15 14 12 12 4 6 6 7 6 8 10 12 14 14 12 12 11 11 10 10 10 8 10 11 13 14 13 13 13 13 13 14 14 13 13 13 13 14 14 13 13 13 13 13 13 13 13 12 10 11 12 13 13 13 13 12 13
4 4 2 6 4 4 3 5 8 11 4 5 14 4 18 19 17 15 13 14 13 13 11 10 5 5 3 5 12 16 17 16 14 11 9 2 7 8 9 10 10 12 14 15 16 15 11 12 12 13 13 12 13 13 13 14 13 13 13 13 14 14 13 13 14 14 14 14 14 13 13 13 13 13 13 13 13 12 11 11 10 11 10 11 12 13 13
3 3 2 3 1 2 8 5 7 10 7 11 8 5 10 14 15 16 14 16 16 15 13 10 7 3 2 9 13 16 18 18 16 13 10 7 1 7 5 8 6 5 6 9 11 11 12 13 13 13 12 13 13 12 13 12 13 13 14 14 14 14 14 14 14 14 14 15 14 14 13 13 13 13 13 13 13 11 12 11 10 10 12 10 10 11 12
1 2 5 1 3 5 3 3 7 8 8 10 9 6 3 11 17 15 13 14 16 17 16 15 13 7 6 13 10 14 18 17 16 14 13 11 9 5 10 9 10 10 9 10 10 12 12 12 12 11 12 12 12 12 12 12 13 13 13 14 14 13 14 14 14 14 14 15 15 14 13 14 14 14 14 13 13 12 12 12 11 12 10 11 11 11 13
6 2 1 1 3 2 3 10 14 15 11 10 4 5 4 10 15 16 15 15 17 15 16 16 14 5 10 6 8 12 15 15 15 12 12 13 10 10 6 9 13 12 12 14 13 12 13 13 12 13 13 13 12 12 12 12 13 13 14 14 13 13 14 14 14 14 14 14 14 14 14 15 15 15 14 14 13 12 10 10 11 10 10 9 10 10 10
6 4 2 2 1 1 7 14 14 15 13 5 5 1 3 10 15 14 15 15 17 16 16 14 11 13 9 9 9 12 13 10 11 12 13 14 13 12 11 10 6 10 11 12 12 13 14 14 13 14 14 13 13 12 12 12 13 13 14 14 14 14 13 13 12 13 12 14 14 13 15 15 13 14 13 11 10 10 10 10 10 9 10 9 11 10 10
8 8 3 2 2 3 10 13 16 16 11 4 2 3 4 7 11 12 12 14 15 15 14 13 11 10 7 8 11 11 10 16 17 16 14 13 13 13 13 11 8 9 8 9 10 9 8 10 12 13 13 13 12 11 11 11 13 14 13 12 12 12 11 11 12 13 12 13 15 14 14 14 14 13 11 12 12 11 11 9 10 10 11 10 10 11 10
2 4 3 4 3 2 12 15 10 14 2 6 5 4 3 7 11 12 11 13 15 15 14 10 9 10 11 9 8 13 15 12 12 14 14 16 16 15 13 13 10 10 10 11 11 10 6 8 10 11 12 12 10 10 10 11 10 8 8 9 10 10 11 12 13 13 13 13 13 13 13 12 11 11 11 12 11 12 9 10 12 12 11 10 10 10 9
3 2 1 2 0 4 17 16 4 15 7 5 6 7 9 11 12 13 13 11 14 14 13 12 9 11 12 13 15 13 15 15 14 14 17 16 14 13 13 13 11 8 9 10 10 9 7 7 8 10 13 12 10 10 9 8 6 7 7 7 8 9 9 10 10 12 12 14 13 11 12 13 13 13 12 11 11 11 11 11 11 12 12 10 10 10 9
2 4 3 3 4 7 11 11 5 6 6 4 6 8 8 10 9 12 12 13 13 14 14 13 13 12 14 18 19 16 16 15 15 14 15 16 15 14 12 10 9 9 9 9 10 9 8 8 8 9 13 12 11 11 9 5 5 6 6 6 7 8 9 10 11 12 13 14 14 12 13 13 13 13 11 11 11 10 11 11 10 11 10 9 9 10 9
3 2 3 4 2 5 7 6 4 5 6 7 10 9 7 8 10 11 11 14 16 14 16 14 13 12 15 13 13 13 12 12 13 13 14 14 14 13 11 11 10 9 9 10 9 10 8 9 9 8 9 13 12 11 4 4 6 6 7 7 7 7 7 8 9 10 10 11 13 13 12 12 12 12 12 11 10 10 10 10 10 10 10 9 10 10 10
7 1 6 4 5 9 8 5 3 6 7 9 10 10 9 9 9 9 10 14 15 14 15 14 14 12 12 14 14 15 13 12 13 14 15 15 14 14 13 12 10 8 8 10 10 10 10 9 8 7 7 9 12 7 5 4 5 6 6 7 6 7 6 6 8 8 9 9 10 10 10 9 11 11 12 11 11 10 10 10 10 10 9 8 8 8 9
4 4 4 11 13 13 8 4 3 5 5 7 8 10 8 8 9 11 11 11 14 13 13 12 14 15 12 14 16 14 14 14 12 11 12 12 12 12 13 11 9 9 9 10 10 10 10 8 7 7 8 7 6 6 6 5 5 5 5 5 4 4 5 4 5 6 8 8 7 7 7 7 7 8 9 9 9 9 9 9 9 9 8 8 7 7 8
3 6 7 12 15 11 4 2 4 7 9 11 12 10 10 9 8 9 11 11 12 12 12 11 11 14 13 12 15 15 13 11 11 10 10 12 13 13 11 11 9 8 9 9 8 8 7 6 6 6 6 6 4 4 4 4 5 6 5 4 4 3 3 3 5 6 6 8 8 6 5 6 6 6 6 7 8 9 10 10 9 9 8 8 9 8 8
7 4 5 16 10 9 11 8 8 10 11 12 16 15 15 13 11 10 10 9 10 11 12 11 12 12 15 11 11 16 15 12 10 12 10 10 10 10 13 11 10 7 7 7 6 6 5 4 5 7 6 6 5 6 5 4 3 6 5 4 4 4 2 1 4 5 5 5 5 5 6 7 8 6 3 0 3 5 1 2 7 9 9 8 9 8 8
6 9 11 15 10 7 10 11 12 14 13 12 14 16 16 14 11 9 10 11 10 11 11 9 8 10 12 13 9 13 16 13 9 8 11 11 10 10 9 8 9 8 7 5 6 5 4 4 6 6 6 6 6 5 4 3 4 7 5 5 5 4 3 2 3 4 5 5 5 6 6 6 6 7 11 10 7 2 2 4 5 4 3 8 8 6 6
8 11 12 9 8 12 11 11 12 12 12 12 14 16 16 15 13 9 9 11 10 10 10 9 7 7 10 13 8 7 13 16 13 5 5 10 10 10 10 11 11 9 7 5 5 5 4 4 5 6 6 6 6 6 5 4 5 6 6 6 5 4 3 2 4 6 6 6 6 7 7 8 7 8 6 9 15 13 8 6 7 9 8 4 5 9 10
9 10 12 11 10 11 13 14 14 13 12 12 14 15 14 15 13 11 9 9 11 11 10 7 7 7 9 11 9 7 10 17 16 13 5 6 7 8 7 7 8 9 9 7 5 4 3 4 5 5 7 7 6 6 5 4 4 5 5 6 5 3 3 2 5 6 6 7 8 8 7 6 7 7 7 7 7 14 14 13 14 14 12 11 9 8 12
11 13 12 12 11 12 12 13 12 12 13 12 12 13 13 13 13 10 10 9 9 11 10 7 8 8 7 11 10 8 5 13 14 14 9 5 7 8 9 10 11 8 8 6 5 3 3 4 5 6 7 7 6 5 4 3 4 5 5 5 5 4 4 4 6 7 7 7 7 8 9 8 6 6 7 8 8 7 10 15 18 17 16 15 14 13 14
8 9 11 12 11 9 8 9 10 10 11 12 13 12 13 15 15 12 12 10 9 10 10 7 6 10 8 8 9 10 9 11 15 14 8 10 10 10 12 11 11 9 7 6 4 3 5 5 5 6 6 5 5 4 2 2 5 5 6 6 6 4 5 6 5 5 6 7 6 5 5 5 5 5 5 7 8 9 10 8 10 14 17 17 14 17 16
11 11 13 12 7 9 10 11 10 14 15 14 14 15 14 12 15 13 11 10 10 9 8 6 6 8 10 8 9 10 8 10 12 12 10 9 10 10 9 8 10 10 9 6 5 6 5 4 4 5 4 4 3 3 1 2 5 6 6 6 6 9 10 7 6 6 5 5 5 6 6 6 5 5 6 6 6 5 6 8 9 8 6 8 13 14 13
11 12 12 11 13 14 14 14 13 13 13 13 14 13 13 12 11 12 12 11 10 9 7 6 6 7 8 10 8 9 9 10 11 11 12 10 9 9 9 10 10 10 7 5 5 5 5 3 3 3 4 4 4 3 2 3 6 6 6 6 6 5 6 7 6 6 6 5 6 6 6 6 6 7 6 5 6 6 7 8 9 9 8 6 6 7 14
13 13 12 11 11 13 13 12 11 11 12 12 13 13 12 11 11 13 14 12 9 7 9 8 6 7 8 10 9 8 6 8 11 12 11 10 10 10 10 10 9 9 6 5 4 5 5 4 3 3 3 4 3 2 3 5 6 5 6 6 6 5 5 6 6 7 7 7 6 7 7 8 7 6 6 7 7 7 7 7 7 8 9 8 8 9 9
13 13 13 12 13 15 15 13 12 12 12 12 13 13 13 11 11 12 14 13 9 9 12 10 8 9 9 10 10 8 6 6 10 10 10 10 10 9 9 10 9 7 5 5 5 4 4 3 4 2 3 3 2 3 5 7 6 5 6 6 6 6 6 6 6 7 8 7 8 10 8 8 8 8 8 8 8 8 9 8 7 6 7 8 8 8 8
13 14 13 12 13 14 15 14 12 11 12 12 13 13 13 12 12 13 14 12 9 10 11 10 11 11 8 9 9 8 6 6 7 9 10 9 10 9 7 7 7 8 8 6 5 4 2 2 2 2 3 2 2 4 6 6 5 6 6 5 6 10 11 9 7 8 7 8 9 10 9 8 8 10 10 10 10 9 9 8 8 8 7 8 8 7 6
14 14 14 12 13 15 14 14 14 13 12 13 13 13 12 12 12 14 13 12 10 9 10 11 11 11 9 8 8 8 7 7 7 6 8 11 10 8 6 4 4 5 6 6 5 4 2 2 2 3 2 2 3 4 5 6 5 6 6 5 6 5 6 10 8 8 6 8 7 7 8 9 8 9 9 9 9 9 9 11 10 8 7 8 8 7 5
15 14 12 14 14 13 15 16 16 16 16 16 14 13 12 11 11 12 12 11 9 8 8 10 10 9 7 8 9 9 8 7 5 4 6 7 12 8 5 4 2 3 5 6 7 5 2 2 3 2 1 3 4 5 6 5 6 6 5 5 5 5 6 6 8 7 7 8 8 7 8 8 8 9 11 10 9 9 9 10 9 9 9 9 8 7 7
14 14 14 16 15 16 18 17 15 15 15 15 14 14 12 10 9 10 10 9 10 9 8 8 9 8 6 7 7 8 7 4 4 5 6 7 8 6 4 3 3 2 3 5 7 6 6 4 3 2 3 4 5 5 5 6 6 6 6 5 6 6 6 7 8 8 8 8 7 8 8 8 10 11 11 10 9 9 9 9 8 9 9 9 8 7 11
11 12 12 12 12 14 14 14 13 14 15 15 16 15 14 11 5 6 8 8 9 9 8 7 7 6 5 5 4 5 7 8 8 7 6 6 5 4 3 4 4 3 2 3 4 6 7 8 4 3 4 4 5 5 6 6 6 6 6 6 7 7 6 6 6 6 7 8 7 8 9 11 11 12 12 10 10 11 11 10 9 8 8 8 7 8 9
12 12 12 12 11 14 14 14 14 15 14 14 14 14 13 14 10 4 6 8 7 6 6 6 6 5 5 5 5 5 6 7 7 6 6 4 4 3 2 2 3 4 3 3 3 5 8 8 2 6 5 5 6 6 6 6 6 7 7 7 7 7 7 8 7 7 7 7 9 11 12 14 14 12 10 10 9 8 9 9 8 8 8 8 8 7 6
9 11 11 12 11 12 13 13 13 14 14 13 12 13 17 17 16 11 4 5 5 5 6 5 4 4 4 5 5 3 1 0 2 2 2 1 1 0 1 1 2 3 4 5 4 6 6 6 5 11 5 5 6 7 8 10 6 6 7 8 8 7 7 8 7 8 8 6 8 11 10 9 10 11 9 9 10 10 10 10 10 8 8 8 8 8 7
7 8 9 10 11 12 12 13 14 15 17 18 17 15 16 14 14 13 10 6 4 5 3 3 4 4 2 3 4 4 3 3 3 2 0 1 1 1 3 2 2 3 3 4 6 6 6 1 9 6 5 4 5 7 10 13 12 8 7 8 7 7 7 7 8 7 7 7 7 7 7 7 8 8 9 10 10 10 10 9 8 8 8 8 8 8 9
4 5 6 8 9 11 12 12 14 14 16 17 17 17 18 17 16 15 14 12 11 4 3 3 4 6 6 7 6 6 5 4 4 3 3 4 3 3 3 3 2 3 4 5 6 5 4 1 6 5 4 5 6 8 11 14 13 8 7 7 8 8 8 7 8 8 8 7 7 7 8 8 8 9 10 10 10 10 10 11 10 9 9 8 8 8 8
4 6 8 9 9 11 12 13 14 15 14 14 15 16 17 17 14 14 15 16 14 12 8 6 7 6 7 8 7 7 6 5 4 4 4 2 2 2 3 4 5 5 4 4 3 4 2 7 7 6 5 5 5 5 8 11 11 8 8 8 8 8 8 8 8 8 7 8 9 9 8 9 9 9 8 8 8 9 9 9 9 9 8 8 8 8 9
6 7 8 9 10 10 11 12 13 13 15 15 14 14 16 16 16 17 15 14 13 14 13 10 9 9 10 9 9 8 8 7 6 5 4 2 2 2 3 4 5 6 4 2 2 3 4 4 4 6 6 6 6 6 7 10 8 7 8 8 8 8 8 8 7 7 7 8 8 8 8 8 9 10 9 9 9 8 8 9 8 8 7 8 8 8 8
6 7 8 9 10 10 11 11 11 12 14 14 15 15 16 18 17 15 14 14 15 15 13 12 14 11 9 9 9 9 10 9 8 8 7 7 6 4 4 4 5 4 5 6 5 7 6 5 6 5 6 7 8 12 10 8 7 8 7 8 7 8 8 9 9 8 8 8 8 8 8 8 9 9 9 9 9 9 9 8 8 8 8 8 8 8 8
5 7 7 8 8 9 10 10 10 11 11 12 13 13 13 13 15 16 17 17 17 16 16 14 14 14 11 9 10 12 10 9 8 7 7 8 9 8 6 5 5 5 6 4 4 6 7 5 6 7 9 9 10 16 14 8 7 9 9 8 9 9 9 9 10 9 9 9 9 9 8 8 9 9 9 9 9 9 9 9 8 8 8 8 8 8 7
3 4 5 5 7 7 8 8 9 9 10 10 10 11 12 12 13 15 17 16 15 17 16 15 14 13 13 12 12 10 10 10 9 7 6 8 9 11 10 8 7 7 10 5 5 6 6 6 6 13 20 19 19 17 12 10 9 9 9 9 8 9 10 9 9 8 9 9 9 8 9 10 10 9 10 10 9 9 9 9 9 9 9 8 8 7 7
2 2 3 4 5 5 6 7 8 9 8 7 9 11 12 12 12 12 13 14 16 16 16 16 13 12 12 12 11 10 10 10 10 9 10 10 10 10 10 11 11 8 10 11 6 7 7 8 12 17 16 19 19 16 10 10 10 10 10 10 10 10 9 10 10 10 10 10 10 10 10 10 10 10 10 11 11 10 10 9 9 8 8 8 8 8 7
5 3 2 4 5 5 5 6 6 6 7 8 9 12 13 12 13 13 12 13 14 14 14 14 15 15 14 13 10 10 11 11 12 11 11 10 11 9 10 13 10 12 16 15 7 8 9 19 19 18 18 18 17 11 10 11 10 10 11 11 11 10 9 9 10 10 10 10 10 10 10 10 10 10 9 9 10 11 11 11 10 8 8 8 8 7 7
6 6 4 3 3 4 5 5 5 7 8 9 10 10 11 11 12 12 12 12 12 12 13 13 14 14 13 13 13 12 11 10 12 12 11 11 12 13 15 19 18 20 15 12 10 9 8 10 15 19 20 20 17 11 10 9 9 9 10 10 10 10 10 10 9 9 9 10 11 11 12 11 10 10 11 11 10 10 9 9 9 8 8 8 8 8 7
6 6 6 4 4 5 5 5 6 7 8 8 8 7 8 8 9 10 11 11 11 12 12 12 11 12 13 13 13 12 10 9 11 12 10 10 10 10 11 11 14 19 17 15 18 19 25 21 20 19 20 19 13 11 11 11 10 10 9 10 11 10 10 10 10 9 9 9 9 8 8 9 9 9 9 10 10 9 9 9 8 8 7 7 7 7 7
5 5 5 5 4 4 4 4 5 6 6 7 8 7 7 7 7 7 8 9 10 9 9 10 12 11 11 11 11 10 10 10 10 9 8 9 10 10 10 14 21 21 14 11 11 10 19 22 20 21 20 15 11 11 11 11 11 10 9 10 9 9 9 9 9 8 8 9 9 8 8 9 8 8 9 9 9 9 9 9 8 7 6 6 6 6 6
5 6 7 6 6 5 4 3 5 5 5 6 6 6 6 6 7 7 7 7 7 8 6 6 6 7 7 8 8 9 9 10 10 10 9 10 10 10 11 11 12 20 19 12 12 11 15 20 19 19 15 11 11 10 10 11 11 11 10 10 10 9 10 11 11 12 9 9 9 9 9 9 9 10 10 9 9 9 8 8 8 10 12 8 6 6 5
5 6 6 5 5 5 3 2 1 3 3 5 5 5 6 6 6 6 6 6 6 7 6 7 6 5 5 5 6 6 7 8 9 11 10 10 10 13 14 11 13 13 13 13 11 11 11 11 11 11 12 12 11 10 10 10 10 11 11 10 11 9 9 9 8 9 9 8 8 8 8 8 8 9 8 8 8 8 8 7 7 6 6 5 5 4 4
3 3 5 5 5 5 5 5 3 1 2 4 4 4 4 5 5 4 5 7 6 5 6 6 7 6 5 5 5 5 5 7 7 7 8 8 8 8 10 14 11 11 11 10 11 11 11 11 13 17 16 12 10 11 13 16 12 11 11 11 10 10 10 9 9 9 9 9 9 9 9 8 7 8 8 8 8 8 7 7 7 6 6 5 5 5 4
Wind_Direction
256 258 265 271 270 253 263 267 274 284 290 287 258 247 245 216 214 231 224 204 220 257 290 26 326 222 238 240 241 245 249 246 243 238 223 210 209 202 190 186 182 184 182 182 182 180 180 177 177 178 179 180 179 181 180 180 181 183 179 181 184 186 187 192 196 195 194 194 195 196 197 198 201 201 201 202 202 201 200 204 207 209 210 211 214 217 220
278 271 260 257 242 238 244 245 255 267 277 278 254 253 256 244 257 264 208 206 230 294 355 318 322 291 257 257 266 287 282 256 241 235 230 212 204 195 187 184 185 184 185 182 180 179 175 175 177 176 177 178 179 179 180 180 181 181 174 182 183 186 190 195 195 193 191 192 193 195 196 199 201 200 200 201 201 202 204 206 207 207 209 213 215 218 220
281 271 254 226 219 224 254 261 291 310 318 280 240 228 261 297 273 262 250 236 255 310 329 326 315 337 349 18 5 343 312 277 245 229 218 202 193 188 189 185 185 187 184 179 174 173 175 177 178 177 178 180 179 178 177 178 181 179 177 179 184 186 192 194 192 190 189 193 192 195 198 199 199 199 202 200 201 204 207 206 206 206 206 212 216 217 219
295 261 203 229 259 235 217 278 355 353 350 12 11 65 7 306 273 323 307 269 286 313 335 308 355 15 30 17 355 351 338 322 282 231 208 192 186 184 187 187 185 182 174 170 172 176 179 179 178 178 175 174 174 179 178 180 179 173 177 180 184 188 192 189 188 188 191 190 193 197 196 200 199 200 199 201 204 206 207 207 209 206 209 214 216 217 219
256 258 262 315 297 157 194 5 358 341 340 14 35 37 28 10 261 73 4 259 301 301 309 351 12 23 28 22 5 347 345 336 310 250 216 194 188 186 186 183 181 176 175 175 177 178 177 177 178 180 175 172 181 180 178 176 167 174 180 180 182 186 188 189 188 188 187 189 194 196 198 199 199 197 200 203 206 207 209 210 209 209 214 214 216 216 218
263 293 306 291 161 191 202 146 55 31 335 2 27 37 17 12 28 1 279 278 310 317 322 354 24 31 28 18 360 359 352 342 330 283 214 212 199 199 187 181 178 178 176 178 178 178 178 180 181 174 173 180 178 168 162 159 171 173 174 179 180 185 187 189 188 187 189 191 195 199 197 198 198 200 201 206 207 208 211 210 212 216 216 218 219 217 218
274 300 313 156 184 189 139 134 50 17 341 25 335 53 32 20 14 7 355 345 339 327 312 296 287 306 26 24 19 8 360 352 343 323 257 183 172 173 184 184 178 174 175 171 167 167 172 166 154 155 161 145 140 155 162 168 171 170 174 177 179 185 190 190 187 188 190 193 198 198 198 198 199 203 203 206 207 208 207 209 211 215 216 218 220 220 220
311 320 294 186 184 98 76 90 30 3 29 24 337 60 27 20 14 4 355 336 328 318 329 320 297 256 276 20 25 10 357 354 345 343 332 265 161 166 173 175 173 166 166 167 169 169 155 152 159 163 163 156 158 166 168 168 168 170 173 178 186 187 190 189 188 190 190 195 199 198 198 199 200 204 205 206 207 207 209 213 215 219 220 220 222 222 222
204 253 275 224 23 127 8 41 5 4 331 324 335 356 44 16 8 1 343 339 341 337 336 334 311 290 249 35 20 360 354 349 342 351 352 348 112 135 132 143 141 133 131 138 141 140 150 157 156 160 157 158 160 160 166 170 168 171 176 184 188 188 190 190 191 191 192 195 198 199 198 198 201 204 205 207 210 205 209 213 212 212 218 215 221 223 222
183 277 305 339 120 167 221 164 291 310 286 289 284 252 12 20 5 357 344 342 336 346 345 344 335 289 33 30 356 349 346 345 346 349 8 17 27 66 118 115 121 127 125 122 134 142 147 154 156 151 153 154 156 162 167 165 169 174 180 190 189 188 191 192 193 192 194 195 198 199 196 199 202 205 207 208 209 204 206 209 212 213 210 219 221 221 222
351 329 207 236 153 133 79 324 310 305 307 298 260 212 55 15 358 352 346 347 348 353 353 342 337 42 62 15 348 337 337 343 352 358 12 21 30 39 44 124 133 137 143 145 146 145 147 150 154 149 151 150 155 163 167 169 173 176 186 191 189 191 195 193 193 193 194 196 199 197 197 202 203 205 206 206 207 201 204 209 216 214 214 218 222 223 221
237 262 305 284 244 276 325 323 316 310 310 310 175 162 48 5 349 348 349 355 354 347 357 344 19 31 46 5 325 326 322 336 1 10 12 19 26 35 45 40 69 117 127 126 136 149 157 160 155 153 153 157 163 165 169 166 174 183 189 192 192 196 195 192 192 193 194 197 199 196 201 205 204 208 207 207 203 197 204 206 212 211 211 214 219 223 221
237 227 250 19 357 28 343 333 318 316 294 206 87 77 10 344 341 344 351 354 354 348 3 9 21 357 335 312 298 294 348 15 6 10 16 27 30 38 42 46 45 69 78 103 118 124 136 145 154 154 155 158 164 163 162 167 181 187 190 190 191 197 195 193 192 193 195 197 198 201 203 203 204 207 202 205 204 201 203 202 210 213 212 213 218 225 221
240 207 169 197 129 71 337 337 325 326 282 83 66 99 30 342 354 342 357 353 354 353 358 6 7 332 318 299 328 10 17 8 5 8 13 19 26 31 40 43 46 68 75 83 86 82 82 126 144 150 149 151 150 152 160 176 181 170 171 183 187 194 195 195 195 194 196 199 200 203 204 202 201 206 206 205 203 203 202 203 207 212 213 214 219 223 223
334 355 86 72 76 7 5 335 352 10 46 51 337 345 23 9 352 345 342 2 350 353 348 350 347 333 340 359 6 6 13 11 7 8 17 16 17 18 20 27 25 42 69 65 66 73 63 81 118 132 129 128 131 133 134 145 146 147 153 159 170 182 191 196 196 196 197 198 200 202 203 200 200 205 203 201 202 199 201 203 206 211 212 211 215 222 224
310 31 55 59 28 335 350 8 52 39 48 7 1 14 356 359 357 350 337 344 350 346 345 337 339 342 348 8 7 4 6 1 4 5 13 14 13 15 16 20 19 21 56 60 62 52 50 65 82 106 119 118 120 116 125 158 143 140 144 152 153 172 189 196 198 200 199 201 202 203 203 199 200 205 200 200 199 198 199 200 203 209 211 209 210 217 219
16 17 71 62 74 356 355 359 53 72 59 23 13 17 10 355 351 341 341 335 339 344 341 338 341 344 359 360 359 6 353 350 358 5 14 15 13 13 11 13 13 22 37 52 56 53 48 62 71 81 100 112 107 106 144 155 150 142 149 147 147 160 175 198 206 207 203 203 203 203 204 196 197 202 202 194 197 199 195 199 201 206 210 203 207 212 218
310 14 96 109 19 347 331 320 41 35 20 7 6 3 355 355 341 338 336 328 330 337 342 342 342 349 346 349 359 7 358 353 355 3 7 6 7 9 13 14 14 20 37 49 53 57 47 46 66 74 81 95 103 124 148 133 134 132 138 143 144 153 168 178 195 200 206 212 210 207 202 196 199 199 198 193 198 196 193 198 200 204 208 202 207 209 214
330 124 67 25 343 317 300 270 114 69 29 7 355 344 346 333 333 329 326 328 322 328 335 341 340 338 349 353 355 1 3 357 350 349 354 2 5 7 6 2 12 23 39 49 46 44 48 24 43 58 75 78 104 132 124 135 130 130 121 117 121 132 156 177 186 186 195 201 204 203 198 193 195 197 196 195 196 193 192 195 197 201 202 199 200 200 211
10 326 2 8 328 310 309 116 60 18 354 345 340 328 321 314 315 312 312 321 316 325 326 331 338 334 339 2 354 352 355 346 344 344 346 359 0 359 3 3 14 27 37 45 49 49 46 21 35 48 50 49 44 61 70 80 107 114 108 116 120 132 155 183 171 180 190 196 184 177 173 178 188 188 188 187 190 192 192 194 191 197 194 199 199 198 205
313 274 11 355 345 60 63 37 4 347 340 336 324 321 315 312 307 304 304 307 309 311 311 321 333 336 333 352 359 351 341 340 344 341 327 347 360 1 5 358 8 22 29 43 47 58 44 26 51 56 47 36 26 39 35 40 86 98 97 91 81 52 32 138 158 166 163 155 134 114 83 67 54 40 15 332 210 165 35 262 200 192 197 200 203 202 203
11 4 341 346 346 324 326 329 321 311 310 310 305 304 301 299 299 300 302 299 300 300 299 309 321 331 328 334 15 350 325 323 325 333 335 348 355 1 358 355 6 12 22 34 41 42 26 41 67 63 53 35 27 17 21 42 81 89 92 82 65 41 35 53 128 132 125 116 110 116 117 108 104 74 63 67 35 22 121 13 16 356 196 198 200 186 163
320 324 324 322 302 290 288 298 298 289 289 292 293 292 289 289 288 287 287 292 295 295 298 306 317 327 324 317 344 344 320 317 319 325 338 352 350 355 1 4 0 357 2 8 38 34 8 25 57 67 63 46 34 22 16 23 62 96 104 90 79 57 50 53 142 134 127 125 127 127 132 134 127 125 111 54 47 46 48 47 42 46 51 41 168 168 156
291 299 318 315 310 303 301 295 288 286 280 277 276 275 275 274 278 282 277 272 277 280 284 290 309 320 315 308 320 327 320 310 316 321 353 359 347 346 358 11 5 355 350 349 1 1 339 37 48 53 57 40 31 20 19 23 46 70 77 94 90 86 75 97 130 129 130 130 134 135 137 140 136 137 119 108 62 42 46 56 56 53 46 49 66 106 127
318 318 305 307 305 296 287 283 282 280 279 270 266 268 271 276 274 271 272 271 260 263 268 279 305 302 297 296 307 307 312 303 307 314 333 357 5 359 355 355 355 350 332 323 304 318 3 34 48 46 51 31 19 15 16 35 75 81 82 92 102 100 91 99 126 132 132 139 144 143 148 142 146 136 131 124 111 96 46 62 68 61 52 52 65 80 89
306 307 311 314 297 287 291 294 283 274 272 268 264 265 264 269 272 277 275 271 265 262 262 268 280 290 298 298 298 304 313 309 306 313 333 349 357 360 357 346 333 329 328 327 309 352 13 29 37 42 43 22 9 357 336 62 84 86 80 78 88 104 109 107 105 124 130 141 139 127 122 123 125 120 110 116 128 121 118 112 77 62 55 51 60 79 78
330 325 326 322 320 334 330 327 313 310 301 288 273 266 262 256 265 268 271 266 261 255 252 250 262 283 295 296 297 297 299 307 318 320 327 345 352 347 339 331 330 329 333 337 340 3 16 27 36 45 29 355 339 332 339 76 88 80 73 66 62 76 83 97 105 102 106 111 113 115 117 108 102 99 103 114 119 116 124 118 109 97 92 58 41 53 81
333 333 335 332 333 332 327 323 313 304 302 301 294 276 262 258 256 260 258 260 261 256 249 235 247 266 284 291 296 296 312 321 315 314 322 334 334 332 336 337 332 331 333 335 3 4 7 351 40 42 12 343 352 344 353 67 81 76 69 71 66 63 68 80 82 87 86 79 88 95 96 95 98 102 104 98 97 101 100 98 103 108 96 75 86 60 70
336 333 328 327 327 323 320 320 324 319 311 307 303 300 284 258 246 251 256 249 250 268 270 255 235 242 255 267 276 276 291 305 310 310 314 320 326 328 328 334 332 326 324 330 9 9 5 350 338 51 357 340 348 6 47 65 63 61 63 60 70 67 77 82 89 94 87 87 87 97 98 97 97 97 96 93 92 89 81 80 84 96 105 119 110 88 72
333 335 333 334 335 333 334 338 335 325 318 314 309 305 297 262 248 250 256 256 246 246 257 266 266 258 245 248 253 259 257 272 285 296 309 315 318 325 327 327 330 325 331 346 356 354 6 353 333 348 340 336 1 44 73 74 68 55 63 59 59 61 83 96 100 92 95 95 92 91 89 92 88 87 83 81 84 87 88 82 70 76 88 87 80 85 83
334 338 333 333 331 337 340 340 337 329 321 314 310 301 297 274 243 249 253 256 248 245 254 255 259 256 237 239 244 244 248 253 264 290 305 313 317 321 323 334 343 331 328 315 319 335 351 341 305 307 310 328 27 68 82 82 82 74 64 59 64 64 69 70 72 94 100 107 105 103 94 87 90 92 91 89 81 76 79 78 72 60 54 68 73 71 63
339 341 340 343 345 345 343 343 342 340 331 324 314 304 292 283 257 244 249 251 245 237 243 246 242 245 242 233 241 241 239 251 255 265 293 310 312 317 317 323 313 319 305 304 316 332 324 27 352 308 302 46 59 71 84 88 87 76 71 72 67 67 59 76 86 80 94 98 98 91 101 109 102 98 91 89 93 95 91 86 82 74 63 60 58 45 31
344 342 345 345 347 347 350 350 348 342 340 332 321 302 285 271 260 252 246 249 249 232 230 240 245 239 236 237 236 235 227 227 249 273 275 285 296 307 314 309 309 306 306 315 318 317 337 359 299 296 52 78 83 82 83 88 87 88 83 72 75 69 71 66 84 91 80 87 89 93 100 93 93 92 96 96 92 91 90 83 75 77 73 68 63 56 54
346 346 339 341 343 342 345 346 346 345 341 335 326 316 300 277 257 244 242 241 250 246 231 234 238 245 236 226 224 233 241 253 268 243 230 243 259 289 302 317 329 334 307 324 326 327 321 309 300 149 98 99 92 88 88 90 89 87 82 84 76 72 69 72 78 90 91 88 85 81 84 84 91 97 99 98 97 92 85 84 85 85 81 75 64 57 51
329 326 331 335 338 344 345 346 342 344 342 340 338 333 331 324 279 232 227 226 235 238 236 236 240 245 245 243 229 225 217 217 227 250 250 244 247 261 297 327 333 321 352 350 341 323 310 298 277 140 107 89 82 89 92 92 93 90 85 83 83 83 79 76 71 61 85 95 94 94 92 93 95 96 97 94 92 94 93 89 85 82 82 83 80 77 62
334 334 336 342 341 344 346 350 352 350 345 341 338 337 341 342 333 259 235 236 232 230 233 233 233 233 245 252 253 247 233 222 212 216 238 254 287 304 328 327 332 323 312 307 321 321 309 297 234 125 102 94 90 79 81 91 89 93 92 96 91 86 81 79 75 75 67 85 94 95 98 97 95 93 93 92 85 78 86 87 87 86 84 81 83 76 71
336 335 332 337 340 342 346 351 353 353 353 351 348 349 355 353 347 337 278 247 250 231 219 221 226 229 240 242 249 266 294 160 155 192 251 312 314 344 359 11 10 326 304 270 289 315 295 284 153 119 104 101 102 100 101 99 96 90 94 99 97 97 93 90 84 87 84 58 86 97 98 92 93 96 84 85 93 91 93 92 89 81 79 82 77 77 65
327 329 333 336 339 343 352 356 358 359 3 6 3 1 2 356 351 354 2 347 284 240 225 200 206 210 162 95 76 66 47 38 44 51 9 347 351 78 52 37 3 342 313 274 298 295 288 227 119 97 109 92 105 107 111 112 109 104 97 101 96 93 88 90 89 82 83 78 70 70 75 76 86 85 85 88 88 86 86 85 81 82 82 76 74 68 70
340 336 346 348 346 350 350 353 1 1 6 9 7 7 5 5 5 8 8 3 357 341 172 148 126 110 97 90 81 62 46 37 37 39 28 6 0 66 70 38 4 335 293 286 285 276 294 98 106 107 103 114 114 111 113 111 108 99 95 97 95 91 91 89 93 91 87 87 86 81 78 77 78 86 91 90 89 87 83 84 84 79 77 77 73 71 71
348 357 0 359 5 359 358 357 1 3 4 7 12 12 5 8 6 12 16 11 4 14 32 66 82 66 68 72 68 57 39 30 34 44 41 51 73 83 77 28 0 326 317 331 329 314 37 105 113 112 110 106 99 110 111 112 107 99 101 98 99 95 93 92 94 92 88 85 87 83 79 80 79 79 80 79 81 83 87 85 83 82 78 75 74 77 79
353 357 1 7 7 7 6 3 4 1 4 4 9 12 15 13 13 21 16 10 7 13 24 39 64 68 67 67 60 51 40 32 24 23 21 37 61 56 60 35 343 329 327 324 344 16 44 69 86 107 102 98 97 96 98 101 95 94 97 98 98 99 98 95 93 91 91 94 92 91 88 89 87 82 78 75 75 75 75 77 78 71 72 76 77 79 80
355 356 3 6 9 9 9 5 5 8 9 6 4 7 15 19 22 20 16 17 21 22 20 24 43 54 59 59 59 49 38 29 27 30 36 39 26 26 58 33 348 334 13 2 34 56 30 42 62 80 89 98 94 99 96 92 90 93 92 91 88 91 94 96 92 87 86 91 90 89 89 85 84 85 83 83 79 76 78 77 77 76 74 74 73 71 72
6 5 2 5 5 8 10 8 9 9 11 10 8 7 6 17 25 24 24 23 25 23 23 21 26 32 36 39 47 47 33 21 23 21 35 39 39 34 23 358 341 358 29 36 40 69 60 47 68 78 91 93 96 94 84 76 87 94 93 90 90 90 89 89 91 90 87 84 82 80 82 84 85 87 87 84 82 82 81 80 79 79 75 72 72 73 71
10 14 1 2 4 3 7 8 9 11 15 13 10 13 13 17 23 30 28 25 23 24 25 23 21 26 33 39 47 45 38 25 20 12 38 37 31 24 12 11 357 20 28 20 39 60 70 73 70 93 94 92 92 91 90 84 73 73 80 87 88 93 94 90 85 84 82 82 84 83 84 84 84 83 84 85 84 80 77 78 77 77 75 75 73 73 69
345 13 1 4 1 2 4 7 10 11 5 7 18 27 26 24 24 26 32 32 30 26 22 22 19 19 24 32 42 45 50 44 33 23 35 37 40 30 10 20 17 8 25 31 30 52 63 66 83 85 89 92 91 88 85 86 87 88 87 86 83 82 82 87 87 83 79 79 78 79 79 80 83 83 82 82 83 80 76 74 74 74 76 76 76 74 72
338 319 336 5 6 358 357 5 6 8 11 16 25 32 31 29 28 28 29 34 36 31 26 24 24 23 22 22 22 32 42 45 41 35 37 34 34 21 23 35 30 31 33 34 30 36 62 72 71 72 74 75 77 75 79 81 82 85 87 91 90 84 76 79 83 84 87 89 91 89 90 90 88 85 86 88 87 87 86 85 83 77 76 76 75 75 74
354 348 341 353 349 343 350 5 13 18 14 21 27 28 26 27 31 31 29 30 34 34 31 28 25 23 23 23 22 24 24 33 42 33 29 26 27 31 28 31 33 38 36 36 40 39 33 59 69 75 78 78 74 74 71 69 71 78 81 82 83 85 86 84 82 85 87 90 92 91 90 88 88 89 89 86 84 84 84 81 76 73 70 71 68 69 66
8 360 348 341 343 347 349 0 19 19 15 15 15 17 21 26 29 32 33 33 32 33 33 32 31 25 21 23 23 24 21 17 46 40 22 28 26 32 32 29 32 34 35 35 38 39 41 47 57 63 69 74 72 71 70 74 73 74 74 78 80 79 76 78 80 78 77 77 81 83 86 87 86 87 88 87 87 86 85 85 84 81 75 73 72 68 68
7 359 351 1 1 359 357 6 18 16 5 360 8 5 9 15 24 28 32 35 35 34 37 38 34 30 24 21 25 21 21 24 39 45 27 30 32 32 35 36 34 33 31 30 30 38 46 41 46 55 56 58 63 70 72 73 74 70 67 69 72 71 74 77 80 79 81 83 81 79 79 80 82 85 84 86 87 87 87 85 83 81 80 80 77 75 73
0 5 4 357 356 349 327 0 19 7 3 6 3 359 2 15 35 33 30 32 36 40 29 27 40 40 34 27 18 21 18 22 28 35 37 39 40 40 36 37 40 42 40 35 33 30 37 42 41 47 54 54 54 58 67 71 73 72 70 64 65 71 73 75 78 77 78 80 84 86 89 91 92 89 87 86 85 83 82 81 82 84 85 83 82 78 76
14 14 357 347 344 341 340 282 349 36 20 12 359 8 12 15 34 36 36 41 23 31 23 25 25 29 41 39 31 25 25 23 30 38 38 35 35 37 39 42 43 44 43 41 36 36 37 39 43 44 47 52 54 52 53 60 60 63 66 63 62 61 62 62 63 66 63 66 65 68 69 73 73 73 75 78 78 78 79 80 81 79 77 78 78 77 77
27 24 9 2 354 2 10 14 3 67 47 12 352 7 19 15 12 9 21 49 50 47 41 36 36 21 24 28 35 33 38 47 37 32 38 42 45 45 37 36 33 35 40 46 45 39 37 37 43 47 48 48 48 52 52 54 53 57 59 61 62 63 63 61 61 65 66 67 70 70 64 59 61 68 70 75 79 82 82 82 80 80 78 76 74 75 72